Flag for Ukraine Weather past 2 weeks in Odesa, Ukraine

Now
41 °F

Sunny.


Feels Like: 34 °F
Forecast: 40 / 49 °F
Wind: 13 mph from Southwest

Location: Odesa Airport

Current Time: Dec 22, 2014 at 12:59:32 PM

Latest Report: Dec 22, 2014 at 12:30 PM


Visibility: 10 mi

Pressure: 30.09 "Hg

Humidity: 61%

Dew point: 28 °F

Location of OdesaLocation

Historic Weather in Odesa — Graph

°F

Odesa temperature yesterday

Maximum temperature yesterday: 45 °F (at 12:30 PM)
Minimum temperature yesterday: 30 °F (at 2:00 AM)
Average temperature yesterday: 37 °F

Past Weeks' High & Low Weather Summary

 TemperatureHumidityPressure
High48 °F (Dec 13, 1:00 PM)100% (Dec 7, 12:00 PM)30.27 "Hg (Dec 7, 12:00 PM)
Low27 °F (Dec 12, 10:00 PM)57% (Dec 22, 12:00 PM)29.83 "Hg (Dec 17, 4:30 PM)
Average37 °F94%30.08 "Hg
* Reported Dec 7 12:00 Noon — Dec 22 12:00 Noon, Odesa, Weather by CustomWeather, © 2014

Note: Actual official high and low records may vary slightly from our data, if they occured in-between our weather recording intervals... More about our weather records

Advertising

Odesa weather history for previous 24 hours

 ConditionsComfort  
Time TempWeatherWind HumidityBarometerVisibility
12:00 PM
Dec 22
43 °FSunny.10 mph57%30.09 "Hg10 mi
11:30 AM41 °FSunny.13 mph61%30.12 "Hg10 mi
11:00 AM41 °FPassing clouds.10 mph61%30.12 "HgN/A
10:30 AM37 °FSunny.8 mph70%30.15 "Hg10 mi
10:00 AM37 °FBroken clouds.10 mph70%30.15 "HgN/A
9:30 AM37 °FPassing clouds.13 mph70%30.15 "HgN/A
9:00 AM36 °FSunny.13 mph75%30.15 "Hg10 mi
8:30 AM34 °FSunny.13 mph75%30.15 "Hg10 mi
8:00 AM34 °FSunny.10 mph81%30.15 "Hg10 mi
7:30 AM32 °FClear.10 mph80%30.12 "Hg10 mi
7:00 AM32 °FClear.10 mph87%30.12 "Hg10 mi
6:30 AM32 °FClear.10 mph87%30.12 "Hg10 mi
5:30 AM32 °FClear.10 mph87%30.12 "Hg10 mi
5:00 AM32 °FClear.8 mph87%30.12 "Hg10 mi
4:30 AM32 °FClear.8 mph87%30.12 "Hg10 mi
4:00 AM34 °FClear.10 mph81%30.12 "Hg10 mi
3:30 AM34 °FClear.13 mph81%30.12 "Hg10 mi
3:00 AM34 °FClear.17 mph87%30.12 "Hg10 mi
2:30 AM34 °FClear.17 mph87%30.12 "Hg10 mi
2:00 AM34 °FClear.17 mph87%30.12 "Hg10 mi
1:30 AM34 °FClear.17 mph87%30.09 "Hg10 mi
1:00 AM34 °FClear.15 mph87%30.09 "Hg10 mi
12:30 AM36 °FClear.17 mph81%30.09 "Hg10 mi
11:30 PM
Dec 21
36 °FClear.17 mph81%30.09 "Hg10 mi
11:00 PM36 °FClear.15 mph81%30.07 "Hg10 mi
10:30 PM36 °FClear.15 mph81%30.07 "Hg10 mi
10:00 PM36 °FClear.13 mph81%30.07 "Hg10 mi
9:30 PM36 °FClear.13 mph81%30.04 "Hg10 mi
9:00 PM36 °FClear.10 mph81%30.04 "Hg10 mi
8:30 PM36 °FClear.13 mph81%30.04 "Hg10 mi
8:00 PM37 °FClear.13 mph81%30.01 "Hg10 mi
7:30 PM37 °FClear.13 mph81%30.01 "Hg10 mi
7:00 PM39 °FClear.13 mph75%30.01 "Hg10 mi
6:30 PM39 °FClear.15 mph75%29.98 "Hg10 mi
6:00 PM39 °FClear.15 mph75%29.98 "Hg10 mi
5:30 PM41 °FClear.15 mph70%29.95 "Hg10 mi
5:00 PM41 °FClear.13 mph70%29.95 "Hg10 mi
4:30 PM41 °FClear.8 mph76%29.95 "Hg10 mi
4:00 PM41 °FMore clouds than sun.6 mph81%29.95 "HgN/A
3:30 PM41 °FOvercast.6 mph81%29.92 "HgN/A
3:00 PM41 °FSprinkles. More clouds than sun.8 mph81%29.92 "HgN/A
2:30 PM43 °FMore clouds than sun.8 mph76%29.92 "HgN/A
2:00 PM43 °FSunny.6 mph76%29.92 "Hg10 mi
1:30 PM43 °FSunny.8 mph71%29.92 "Hg10 mi
1:00 PM45 °FSunny.8 mph71%29.89 "Hg10 mi
12:30 PM45 °FSunny.10 mph71%29.92 "Hg10 mi
12:00 PM43 °FSunny.10 mph76%29.92 "Hg10 mi
Weather by CustomWeather, © 2014

See weather overviewHow to use our weather pages